www.pogodaiklimat.ru

Погода и климат >> Архив погоды >> Россия >> Якутия >> Джарджан


АРХИВ ПОГОДЫ в Джарджане

Время (UTC), дата Ветер
(напр.,м/с)
 
Видим.   Явления Облачность Т
(С)
Тd
(С)
f
(%)
Тe
(С)
Тes
(С)
Комфортность P
(гПа)
Po
(гПа)
Тmin
(С)
Tmax
(С)
R
(мм)
R24
(мм)
S
(см)
15 17.04 СВ 1 50 км ясно -15.4 -20.5 65 -18 -18 1016.0 1010.8
18 17.04 СВ 2 50 км ясно -20.1 -23.4 75 -26 -26 1016.2 1010.9
21 17.04 В 1 50 км ясно -20.8 -24.1 75 -24 -24 1016.4 1011.1
00 18.04 штиль 0 50 км ясно -13.1 -20.2 55 -13 -9 1015.9 1010.7 -20.8 34
03 18.04 ЮЗ 4 50 км 10/0
[Ac As]
-8.8 -16.7 53 -15 -14 1015.5 1010.4
06 18.04 ЮЗ 4 50 км 10/0
[Ac trans Cs]
-4.0 -14.6 43 -9 -7 1015.0 1010.0
09 18.04 Ю 4 50 км 10/0
[Cs]
-3.7 -15.9 38 -9 -8 1014.6 1009.6
12 18.04 Ю 3 50 км 10/0
[Cs]
-5.0 -15.9 42 -10 -10 1014.3 1009.3 -3.2
15 18.04 Ю 5 50 км 10/0
[Ac As]
-5.9 -15.6 46 -13 -13 1014.6 1009.6
18 18.04 Ю 8
{13}
50 км 6/0
[Ac As]
-7.8 -17.7 45 -17 -17 1015.3 1010.2
21 18.04 Ю 5
{11}
50 км 10/0
[Ci fib]
-11.2 -19.6 50 -19 -19 1016.0 1010.9
00 19.04 Ю 4 50 км ясно -7.8 -17.0 48 -14 -12 1016.1 1011.0 -11.2 34
03 19.04 Ю 4 50 км 3/0
[Ci fib]
-3.1 -16.8 34 -8 -4 1015.8 1010.8
06 19.04 Ю 5
{11}
50 км ясно -1.3 -16.2 31 -7 -4 1014.8 1009.9
09 19.04 Ю 5
{10}
50 км ясно -2.0 -16.4 32 -8 -7 1014.7 1009.8
12 19.04 Ю 1 50 км ясно -5.3 -19.6 31 -7 -7 1014.7 1009.7 -1.3
15 19.04 В 1 50 км ясно -10.3 -20.0 45 -12 -12 1014.8 1009.7
18 19.04 СВ 2 50 км ясно -14.5 -20.6 60 -19 -19 1015.3 1010.1
21 19.04 СВ 3 50 км ясно -15.7 -21.7 60 -22 -22 1015.3 1010.1
00 20.04 СВ 2 50 км ясно -8.0 -20.6 36 -12 -8 1015.1 1010.0 -15.7 34
03 20.04 С 2 50 км 6/0
[Cs]
-2.8 -19.2 27 -6 0 1013.5 1008.5
06 20.04 СВ 3 50 км 10/0
[Cs]
-0.1 -18.2 24 -4 0 1012.1 1007.2
09 20.04 СВ 3 50 км 10/0
[Ac As]
-1.4 -16.4 31 -5 -5 1010.5 1005.6
12 20.04 СВ 2 50 км 10/0
[Ac As]
-3.4 -16.7 35 -7 -7 1009.2 1004.3 -0.1
15 20.04 штиль 0 50 км 8/0
[Ac As]
-9.0 -14.0 67 -9 -9 1007.8 1002.8
18 20.04 СВ 1 50 км 10/0
[Ac As]
-9.3 -14.9 64 -11 -11 1006.3 1001.3
21 20.04 СВ 1 50 км 10/0
[Ac As]
-8.8 -15.4 59 -11 -11 1004.9 999.9
00 21.04 штиль 0 50 км 10/0
[Ac As]
-7.5 -14.0 60 -8 -6 1003.5 998.6 -9.3 34
03 21.04 штиль 0 50 км 10/0
[Ac As]
+1.9 -14.8 28 +2 +5 1002.2 997.4
06 21.04 ЮЗ 2 50 км 10/0
[Ac As]
+0.7 -9.3 47 -2 -0 1001.1 996.3
09 21.04 Ю 4 50 км 10/0
[Ac As]
+0.9 -4.8 66 -4 -4 1001.2 996.4
12 21.04 Ю 3 50 км 10/8 600 м
[Cb cap Ac As]
-0.9 -4.4 77 -6 -6 1001.9 997.1 +1.9
15 21.04 Ю 2 50 км 10/0
[Ac As]
-3.5 -4.3 94 -8 -8 1002.2 997.3
18 21.04 Ю 2 50 км 10/0
[Ac As]
-3.2 -4.6 90 -7 -7 1002.4 997.5
21 21.04 Ю 2 50 км 10/0
[Ac trans Cs]
-4.7 -6.4 88 -9 -9 1002.7 997.8
00 22.04 Ю 4 50 км 10/10 600 м
[Cb cap]
-2.7 -7.2 71 -8 -8 1003.4 998.6 -4.7 34
03 22.04 ЮЗ 5 50 км 10/10
[Cb cap]
-0.9 -6.3 67 -7 -7 1003.4 998.6
06 22.04 Ю 6
{12}
50 км 3/3
[Sc]
+0.7 -7.0 56 -5 -4 1003.7 998.9
09 22.04 Ю 4
{11}
50 км 10/8 600 м
[Cb cap Cs]
-0.6 -3.0 84 -6 -6 1004.4 999.6
12 22.04 Ю 4
{10}
50 км 10/3 1000 м
[Sc Cs]
-2.6 -6.7 73 -8 -8 1005.6 1000.8 +0.7
15 22.04 ЮВ 2 50 км 10/10 1000 м
[Sc]
-4.5 -6.8 84 -9 -9 1006.3 1001.4
18 22.04 Ю 3 50 км 10/10 1000 м
[Sc]
-6.1 -7.4 90 -12 -12 1006.9 1002.0
21 22.04 ЮВ 4 50 км 10/10 1000 м
[Sc]
-7.5 -8.4 93 -14 -14 1008.2 1003.3
00 23.04 Ю 3 50 км 6/6 1000 м
[Sc]
-5.1 -7.2 85 -11 -9 1008.7 1003.8 -7.5 34
03 23.04 ЮЗ 3 50 км 6/6 1000 м
[Sc]
-2.2 -6.1 75 -7 -5 1008.0 1003.2
06 23.04 Ю 3 50 км 3/3 1000 м
[Sc]
+0.6 -9.5 47 -3 0 1007.2 1002.4
09 23.04 ЮЗ 7
{13}
50 км ясно +0.8 -10.2 44 -5 -5 1006.5 1001.7
12 23.04 Ю 5
{13}
50 км ясно -1.1 -9.9 51 -7 -7 1006.5 1001.7 +0.8
15 23.04 Ю 5
{10}
50 км ясно -3.8 -11.5 55 -10 -10 1005.8 1000.9
18 23.04 ЮВ 5
{10}
50 км 8/8 600 м
[Cb cap]
-2.3 -9.5 58 -8 -8 1004.6 999.8
21 23.04 Ю 6
{13}
50 км 10/10 600 м
[Cb cap]
-2.0 -8.7 60 -9 -9 1003.5 998.7
00 24.04 Ю 6
{13}
50 км 10/10 600 м
[Cb cap]
-1.7 -5.1 78 -9 -9 1002.2 997.4 -3.8 34
03 24.04 Ю 8
{14}
20 км слаб. ливневой снег 10/10 600 м
[Cb cap]
-0.4 -2.5 86 -8 -8 1000.0 995.2
06 24.04 Ю 7
{13}
20 км слаб. ливневой снег 10/10 600 м
[Cb cap]
+0.4 -1.3 88 -7 -7 998.6 993.8
09 24.04 Ю 7-10
{14}
20 км слаб. ливневой снег 10/10 600 м
[Cb cap]
+1.3 -0.7 87 -5 -5 998.3 993.5

 

Местоположение метеостанции Джарджан (Якутия, Россия): широта 68.73 долгота 124.00 высота над уровнем моря 39 м.

В архиве по умолчанию представлена погода в Джарджане за последнюю неделю. Архивные данные за месяц целиком и за предыдущие месяцы, начиная с января 2011 года, Вы можете получить, выбрав интересующий диапазон дат из раскрывающегося списка и нажав кнопку "Ввод!".


*Определитесь, кто Вы:
робот инопланетянин человек

Внимание! Время в таблицах - всемирное. Для получения местного времени необходимо прибавить поправку, которая равна 9 ч.

Смотрите также архив погоды в соседних городах и на ближайших метеорологических станциях:

Погода в Жиганске (Якутия, Россия) (219 км)
Погода в Сухане (Якутия, Россия) (231 км)
Погода в Кюсюре (Якутия, Россия) (253 км)
Погода в Батагай-Алыте (Якутия, Россия) (284 км)
Погода в Тюмяти (Якутия, Россия) (355 км)
Погода в Тикси (Якутия, Россия) (367 км)
Погода в Бестяхской Звероферме (Якутия, Россия) (382 км)
Погода в Екюччю (Якутия, Россия) (387 км)
Погода в Верхоянске (Якутия, Россия) (409 км)
Погода на Мысе Быков (Якутия, Россия) (410 км)

Пояснения к столбцам:

Ветер - указаны скорость ветра в м/с - средняя за 10 мин, порывы в срок и между сроками (в фигурных скобках) и направление, откуда дует ветер: С - северный, СВ - северо-восточный, В - восточный, ЮВ - юго-восточный, Ю - южный, ЮЗ - юго-западный, З - западный, СЗ - северо-западный.
Видимость - горизонтальная дальность видимости в метрах или километрах. При видимости от 1 до 10 км при отсутствии осадков обычно наблюдается дымка, при ухудшении видимости до 1 км и менее - туман. В сухую погоду видимость может ухудшаться дымом, пылью или мглою.
Явления - указаны атмосферные явления, наблюдавшиеся в срок или в последний час перед сроком; фигурными скобками обозначены явления, наблюдавшиеся между сроками (за 1-3 часа до срока); квадратными скобками обозначены град или гололедные отложения с указанием их диаметра в мм.
Облачность - указаны через наклонную черту общая и нижняя облачность в баллах и высота нижней границы облаков в метрах; квадратными скобками обозначены формы облаков: Ci - перистые, Cs - перисто-слоистые, Cc - перисто-кучевые, Ac - высококучевые, As - высокослоистые, Sc - слоисто-кучевые, Ns - слоисто-дождевые, Cu - кучевые, Cb - кучево-дождевые. Подробнее классификацию облаков см. в Атласе облаков (PDF).
T - Температура воздуха - температура, измеренная на высоте 2 м над землей.
Td - Температура точки росы - температура, при понижении до которой содержащийся в воздухе водяной пар достигнет насыщения.
f - Относительная влажность воздуха - влажноcть воздуха, измеренная на высоте 2 м над землей.
Te - Эффективная температура - температура, которую ощущает одетый по сезону человек в тени. Характеристика душности погоды. При расчете учитывается влияние влажности воздуха и скорости ветра на теплоощущения человека.
Tes - Эффективная температура на солнце - температура, которую ощущает человек, с поправкой на солнечный нагрев. Характеристика знойности погоды. Зависит от высоты солнца над горизонтом, облачности и скорости ветра. Ночью, в пасмурную погоду, а также при ветре 12 м/с и более поправка равна нулю.
P - Атмосферное давление - приведенное к уровню моря атмосферное давление.
Po - Атмосферное давление - измеренное на уровне метеостанции атмосферное давление.
Tmin - Минимальная температура - минимум температуры воздуха на высоте 2 м над землей.
Tmax - Максимальная температура - максимум температуры воздуха на высоте 2 м над землей.
R - Количество осадков - Количество выпавших осадков за период времени, мм. При наведении курсора мыши на число - период времени, за который выпало указанное количество осадков.
R24 - Количество осадков - Количество выпавших осадков за 24 часа, мм.
S - Снежный покров - Высота снежного покрова, см. При наведении курсора мыши на число - состояние снежного покрова и степень покрытия местности в баллах.